| time (UTC) | temp F | wind direction | speed MPH | gust MPH | rain 1hr in | rain 24hr in | rain mn in | humidity % | barometer mb |
| 20260506133314 | 77 | 130 | 8.0 | 0.0 | 0.00 | 0.00 | 0.00 | 36 | 1014.0 |
| 20260506131814 | 79 | 130 | 8.0 | 0.0 | 0.00 | 0.00 | 0.00 | 34 | 1014.0 |
| 20260506130323 | 79 | 130 | 8.0 | 0.0 | 0.00 | 0.00 | 0.00 | 34 | 1014.0 |
| 20260506124814 | 79 | 80 | 7.0 | 0.0 | 0.00 | 0.00 | 0.00 | 34 | 1014.0 |
| 20260506123314 | 79 | 80 | 7.0 | 0.0 | 0.00 | 0.00 | 0.00 | 34 | 1014.0 |
| 20260506121814 | 77 | 7.0 | 0.0 | 0.00 | 0.00 | 0.00 | 39 | 1014.0 | |
| 20260506120314 | 77 | 7.0 | 0.0 | 0.00 | 0.00 | 0.00 | 39 | 1014.0 | |
| 20260506114814 | 77 | 120 | 8.0 | 0.0 | 0.00 | 0.00 | 0.00 | 39 | 1014.0 |
| 20260506113314 | 77 | 120 | 8.0 | 0.0 | 0.00 | 0.00 | 0.00 | 39 | 1014.0 |
| 20260506111814 | 77 | 120 | 9.0 | 0.0 | 0.00 | 0.00 | 0.00 | 39 | 1015.0 |
| 20260506110314 | 77 | 120 | 9.0 | 0.0 | 0.00 | 0.00 | 0.00 | 39 | 1015.0 |
| 20260506104814 | 75 | 110 | 9.0 | 0.0 | 0.00 | 0.00 | 0.00 | 39 | 1015.0 |
| 20260506103314 | 75 | 110 | 9.0 | 0.0 | 0.00 | 0.00 | 0.00 | 39 | 1015.0 |
| 20260506101814 | 75 | 7.0 | 0.0 | 0.00 | 0.00 | 0.00 | 36 | 1015.0 | |
| 20260506100314 | 75 | 7.0 | 0.0 | 0.00 | 0.00 | 0.00 | 36 | 1015.0 | |
| 20260506094814 | 75 | 120 | 6.0 | 0.0 | 0.00 | 0.00 | 0.00 | 36 | 1015.0 |
| 20260506093314 | 75 | 120 | 6.0 | 0.0 | 0.00 | 0.00 | 0.00 | 36 | 1015.0 |
| 20260506091814 | 75 | 90 | 6.0 | 0.0 | 0.00 | 0.00 | 0.00 | 39 | 1015.0 |
| 20260506090314 | 75 | 90 | 6.0 | 0.0 | 0.00 | 0.00 | 0.00 | 39 | 1015.0 |
| 20260506084814 | 72 | 130 | 8.0 | 0.0 | 0.00 | 0.00 | 0.00 | 38 | 1015.0 |
| 20260506083314 | 72 | 130 | 8.0 | 0.0 | 0.00 | 0.00 | 0.00 | 38 | 1015.0 |
| 20260506081810 | 72 | 90 | 7.0 | 0.0 | 0.00 | 0.00 | 0.00 | 44 | 1015.0 |
| 20260506080314 | 72 | 90 | 7.0 | 0.0 | 0.00 | 0.00 | 0.00 | 44 | 1015.0 |
| 20260506073314 | 68 | 90 | 6.0 | 0.0 | 0.00 | 0.00 | 0.00 | 53 | 1015.0 |
| 20260506071814 | 64 | 90 | 5.0 | 0.0 | 0.00 | 0.00 | 0.00 | 52 | 1015.0 |
| 20260506070314 | 64 | 90 | 5.0 | 0.0 | 0.00 | 0.00 | 0.00 | 52 | 1015.0 |
| 20260506061814 | 61 | 90 | 3.0 | 0.0 | 0.00 | 0.00 | 0.00 | 59 | 1015.0 |
| 20260506060315 | 61 | 90 | 3.0 | 0.0 | 0.00 | 0.00 | 0.00 | 59 | 1015.0 |
| 20260506050328 | 52 | 20 | 3.0 | 0.0 | 0.00 | 0.00 | 0.00 | 77 | 1015.0 |
| 20260506044829 | 52 | 0 | 0.0 | 0.0 | 0.00 | 0.00 | 0.00 | 77 | 1015.0 |
| 20260506043318 | 52 | 0 | 0.0 | 0.0 | 0.00 | 0.00 | 0.00 | 77 | 1015.0 |
| 20260506041815 | 48 | 40 | 3.0 | 0.0 | 0.00 | 0.00 | 0.00 | 87 | 1015.0 |
| 20260506040314 | 48 | 40 | 3.0 | 0.0 | 0.00 | 0.00 | 0.00 | 87 | 1015.0 |
| 20260506034814 | 48 | 30 | 5.0 | 0.0 | 0.00 | 0.00 | 0.00 | 82 | 1014.0 |
| 20260506033314 | 48 | 30 | 5.0 | 0.0 | 0.00 | 0.00 | 0.00 | 82 | 1014.0 |
| 20260506031814 | 48 | 10 | 3.0 | 0.0 | 0.00 | 0.00 | 0.00 | 87 | 1014.0 |
| 20260506030313 | 48 | 10 | 3.0 | 0.0 | 0.00 | 0.00 | 0.00 | 87 | 1014.0 |
| 20260506024814 | 48 | 60 | 5.0 | 0.0 | 0.00 | 0.00 | 0.00 | 87 | 1014.0 |
| 20260506023314 | 48 | 60 | 5.0 | 0.0 | 0.00 | 0.00 | 0.00 | 87 | 1014.0 |
| 20260506021814 | 48 | 60 | 3.0 | 0.0 | 0.00 | 0.00 | 0.00 | 87 | 1014.0 |
| 20260506020314 | 48 | 60 | 3.0 | 0.0 | 0.00 | 0.00 | 0.00 | 87 | 1014.0 |
| 20260506014814 | 50 | 50 | 6.0 | 0.0 | 0.00 | 0.00 | 0.00 | 88 | 1014.0 |
| 20260506013314 | 50 | 50 | 6.0 | 0.0 | 0.00 | 0.00 | 0.00 | 88 | 1014.0 |
| 20260506011814 | 50 | 70 | 7.0 | 0.0 | 0.00 | 0.00 | 0.00 | 88 | 1014.0 |
| 20260506010314 | 50 | 70 | 7.0 | 0.0 | 0.00 | 0.00 | 0.00 | 88 | 1014.0 |
| 20260506004814 | 52 | 2.0 | 0.0 | 0.00 | 0.00 | 0.00 | 88 | 1014.0 | |
| 20260506003430 | 52 | 2.0 | 0.0 | 0.00 | 0.00 | 0.00 | 88 | 1014.0 | |
| 20260506001814 | 54 | 60 | 5.0 | 0.0 | 0.00 | 0.00 | 0.00 | 82 | 1014.0 |
| 20260506000315 | 54 | 60 | 5.0 | 0.0 | 0.00 | 0.00 | 0.00 | 82 | 1014.0 |
| 20260505234814 | 55 | 50 | 6.0 | 0.0 | 0.00 | 0.00 | 0.00 | 77 | 1014.0 |
| 20260505233314 | 55 | 50 | 6.0 | 0.0 | 0.00 | 0.00 | 0.00 | 77 | 1014.0 |
| 20260505231814 | 55 | 30 | 5.0 | 0.0 | 0.00 | 0.00 | 0.00 | 77 | 1014.0 |
| 20260505230314 | 55 | 30 | 5.0 | 0.0 | 0.00 | 0.00 | 0.00 | 77 | 1014.0 |
| 20260505224814 | 57 | 40 | 2.0 | 0.0 | 0.00 | 0.00 | 0.00 | 77 | 1014.0 |
| 20260505223314 | 57 | 40 | 2.0 | 0.0 | 0.00 | 0.00 | 0.00 | 77 | 1014.0 |
| 20260505221811 | 57 | 60 | 1.0 | 0.0 | 0.00 | 0.00 | 0.00 | 72 | 1014.0 |
| 20260505220314 | 57 | 60 | 1.0 | 0.0 | 0.00 | 0.00 | 0.00 | 72 | 1014.0 |
| 20260505214815 | 57 | 1.0 | 0.0 | 0.00 | 0.00 | 0.00 | 72 | 1014.0 | |
| 20260505213314 | 57 | 1.0 | 0.0 | 0.00 | 0.00 | 0.00 | 72 | 1014.0 | |
| 20260505211814 | 59 | 50 | 2.0 | 0.0 | 0.00 | 0.00 | 0.00 | 68 | 1014.0 |
| 20260505210314 | 59 | 50 | 2.0 | 0.0 | 0.00 | 0.00 | 0.00 | 68 | 1014.0 |
| 20260505204816 | 59 | 2.0 | 0.0 | 0.00 | 0.00 | 0.00 | 72 | 1014.0 | |
| 20260505203313 | 59 | 2.0 | 0.0 | 0.00 | 0.00 | 0.00 | 72 | 1014.0 | |
| 20260505201845 | 63 | 70 | 3.0 | 0.0 | 0.00 | 0.00 | 0.00 | 56 | 1014.0 |
| 20260505200314 | 63 | 70 | 3.0 | 0.0 | 0.00 | 0.00 | 0.00 | 56 | 1014.0 |
| 20260505194814 | 61 | 80 | 3.0 | 0.0 | 0.00 | 0.00 | 0.00 | 59 | 1014.0 |
| 20260505193314 | 61 | 80 | 3.0 | 0.0 | 0.00 | 0.00 | 0.00 | 59 | 1014.0 |
| 20260505191814 | 63 | 110 | 3.0 | 0.0 | 0.00 | 0.00 | 0.00 | 59 | 1014.0 |
| 20260505190313 | 63 | 110 | 3.0 | 0.0 | 0.00 | 0.00 | 0.00 | 59 | 1014.0 |
| 20260505184815 | 63 | 120 | 3.0 | 0.0 | 0.00 | 0.00 | 0.00 | 59 | 1014.0 |
| 20260505183314 | 63 | 120 | 3.0 | 0.0 | 0.00 | 0.00 | 0.00 | 59 | 1014.0 |
| 20260505181814 | 68 | 90 | 3.0 | 0.0 | 0.00 | 0.00 | 0.00 | 53 | 1013.0 |
| 20260505180314 | 68 | 90 | 3.0 | 0.0 | 0.00 | 0.00 | 0.00 | 53 | 1013.0 |
| 20260505174811 | 70 | 1.0 | 0.0 | 0.00 | 0.00 | 0.00 | 46 | 1013.0 | |
| 20260505173314 | 70 | 1.0 | 0.0 | 0.00 | 0.00 | 0.00 | 46 | 1013.0 | |
| 20260505171814 | 70 | 230 | 5.0 | 0.0 | 0.00 | 0.00 | 0.00 | 50 | 1013.0 |
| 20260505170314 | 70 | 230 | 5.0 | 0.0 | 0.00 | 0.00 | 0.00 | 50 | 1013.0 |
| 20260505164814 | 72 | 250 | 3.0 | 0.0 | 0.00 | 0.00 | 0.00 | 47 | 1013.0 |
| 20260505163314 | 72 | 250 | 3.0 | 0.0 | 0.00 | 0.00 | 0.00 | 47 | 1013.0 |
| 20260505161814 | 73 | 240 | 3.0 | 0.0 | 0.00 | 0.00 | 0.00 | 47 | 1013.0 |
| 20260505160314 | 73 | 240 | 3.0 | 0.0 | 0.00 | 0.00 | 0.00 | 47 | 1013.0 |
| 20260505153314 | 73 | 280 | 3.0 | 0.0 | 0.00 | 0.00 | 0.00 | 44 | 1013.0 |
| 20260505151822 | 75 | 3.0 | 0.0 | 0.00 | 0.00 | 0.00 | 39 | 1014.0 | |
| 20260505150314 | 75 | 3.0 | 0.0 | 0.00 | 0.00 | 0.00 | 39 | 1014.0 | |
| 20260505140314 | 77 | 6.0 | 0.0 | 0.00 | 0.00 | 0.00 | 36 | 1014.0 |